THOR ABLESTAR DEB, 244

Orbit data source: Space-Track

THOR ABLESTAR DEB, 244 is space debris in LEO originally from a launch on Thu, 29 Jun 1961 UTC launched from the Air Force Eastern Test Range (AFETR). Debris objects in space refer to the collection of defunct objects orbiting the Earth. Examples of debris include non-operational satellites, rocket bodies, and fragments generated from explosions, collisions, or faulty payload assembly.

Loading next visibility...
Identifier
244, 1961-015BZ
Orbit
LEO
Country
Flag of USUS
Related business
Manufacturer
Unknown
Mission
Spacecraft
Bus & Motor
Unknown
Mass
Unknown
Launch date (UTC)
1961-06-29 (65 years ago)
Launch vehicle
Unknown
Launch site
Air Force Eastern Test Range (AFETR)
Object type
Payload
Rocket body
Debris
Shape & HBR
Unknown shape, 0.2 m
Radar Cross Section
Medium (>0.1 m² and <1 m²)

Expand to show TLE details & history
Last TLE update: 15 hours ago

TLE from 15 hours ago
0 THOR ABLESTAR DEB
1   244U 61015BZ  26246.41401926  .00000024  00000-0  73040-4 0  9994
2   244  66.8414  37.1890 0065870  23.2521 337.1516 13.95764699310054
Epoch: 2026-09-03T09:56Z
TLE epoch observation values (Epoch: 2026-09-03T09:56:11.264Z)
Latitude
-0.00003°
Longitude
-94.41049°
Altitude
866.394 km
Speed
7.442 km/s
True Right ascension
02h 28m 45s
True Declination
0° 00' 00"
Sunlit
Object was in full shadow at epoch
Visualization orbit readout
Latitude
Unknown
Longitude
Unknown
Altitude
Unknown
Speed
Unknown
Apparent Right ascension
Unknown
Apparent Declination
Unknown
Sunlit
N/A
Visualization observer readout
Local Sidereal Time
16:50:18
Azimuth
Unknown
Elevation
Unknown
Doppler factor
Unknown
Orbital elements
Apogee altitude
954.87 km
Perigee altitude
858.897 km
Semi-major axis
7,285.02 km
Eccentricity
0.00659
Inclination
66.8414°
RAAN
37.189°
Arg. of periapsis
23.2521°
True anomaly
336.85627°
Mean anomaly
337.1516°
Eccentric anomaly
337.00416°
Mean motion
3.49058 °/min
Orbital period
103.13 mins
BSTAR
0.00007304
Loading maneuver chart data...
Computing Atmospheric mass density...

Documentation

Showing up to 5 results
|